Вернуться в каталог

FENGYUN 1C DEB

АктивенPO
NORAD 32150·DEBRIS·🇨🇳 China

Запущен May 10, 1999 с Taiyuan Satellite Launch Center

Loading…

Ближайшие Пролёты (ближайшие 24 часа)

TLE

СвежийSource: Space-Track

Эпоха: Sep 13, 2026, 08:59 UTC

1 32150U 99025CSU 26256.37439638  .00000434  00000-0  83803-4 0  9997
2 32150  99.1602 313.9524 0168958 313.5471  45.1796 14.61201039 16958

Отслеживайте FENGYUN 1C DEB в реальном времени с AllMySat

Download on the App Store